This is the latest recevied weather packets stored in our database for station/object K1RFS. If no packets are shown the sender has not sent any weather packets the latest 10 day(s).
| Time | Temp. | Humidity | Pressure | Rain* | Wind** | Luminosity | Snow |
|---|---|---|---|---|---|---|---|
| 1778084706 | 11.11° C | 29% | 1004.2 hPa | 0 mm | - | 33 W/m² | - |
| 1778084398 | 10.56° C | 29% | 1004.1 hPa | 0 mm | - | 32 W/m² | - |
| 1778084095 | 10.56° C | 29% | 1004 hPa | 0 mm | - | 32 W/m² | - |
| 1778083793 | 10.56° C | 29% | 1003.9 hPa | 0 mm | - | 32 W/m² | - |
| 1778083490 | 10.56° C | 33% | 1003.8 hPa | 0 mm | - | 32 W/m² | - |
| 1778083187 | 10.56° C | 33% | 1003.7 hPa | 0 mm | - | 31 W/m² | - |
| 1778082885 | 10.56° C | 33% | 1003.4 hPa | 0 mm | - | 31 W/m² | - |
| 1778081776 | 9.44° C | 41% | 1003.4 hPa | 0 mm | - | 30 W/m² | - |
| 1778081474 | 9.44° C | 40% | 1003.3 hPa | 0 mm | - | 30 W/m² | - |
| 1778081171 | 10° C | 39% | 1003.2 hPa | 0 mm | - | 30 W/m² | - |
| 1778080869 | 10° C | 38% | 1003.3 hPa | 0 mm | - | 29 W/m² | - |
| 1778080567 | 10° C | 40% | 1003.3 hPa | 0 mm | - | 29 W/m² | - |
| 1778080263 | 9.44° C | 40% | 1003.1 hPa | 0 mm | - | 29 W/m² | - |
| 1778079960 | 9.44° C | 42% | 1003 hPa | 0 mm | - | 29 W/m² | - |
| 1778079657 | 9.44° C | 39% | 1003 hPa | 0 mm | - | 28 W/m² | - |
| 1778079354 | 9.44° C | 44% | 1002.9 hPa | 0 mm | - | 28 W/m² | - |
| 1778079051 | 9.44° C | 47% | 1003 hPa | 0 mm | - | 27 W/m² | - |
| 1778078748 | 9.44° C | 51% | 1002.8 hPa | 0 mm | - | 27 W/m² | - |
| 1778078445 | 8.89° C | 47% | 1002.6 hPa | 0 mm | - | 27 W/m² | - |
| 1778078143 | 8.89° C | 48% | 1002.8 hPa | 0 mm | - | 26 W/m² | - |
| 1778077841 | 8.89° C | 48% | 1002.6 hPa | 0 mm | - | 26 W/m² | - |
| 1778077538 | 8.89° C | 47% | 1002.8 hPa | 0 mm | - | 25 W/m² | - |
| 1778077236 | 8.89° C | 47% | 1002.8 hPa | 0 mm | - | 25 W/m² | - |
| 1778076934 | 8.89° C | 47% | 1002.9 hPa | 0 mm | - | 24 W/m² | - |
| 1778076632 | 8.33° C | 50% | 1002.6 hPa | 0 mm | - | 24 W/m² | - |
* Rain latest hour (hover to see other rain measurements)
** Current wind speed in m/s (hover to see current wind gust speed)